OPS 0856 DEB, 24676

Orbit data source: Space-Track

OPS 0856 DEB, 24676 is space debris in LEO originally from a launch on Fri, 19 Aug 1966 UTC launched from the Air Force Western Test Range (AFWTR). Debris objects in space refer to the collection of defunct objects orbiting the Earth. Examples of debris include non-operational satellites, rocket bodies, and fragments generated from explosions, collisions, or faulty payload assembly.

Loading next visibility...
Identifier
24676, 1966-077Q
Orbit
LEO
Country
Flag of USUS
Related business
Manufacturer
Unknown
Mission
Spacecraft
Bus & Motor
Unknown
Mass
Unknown
Launch date (UTC)
1966-08-19 (60 years ago)
Launch vehicle
Unknown
Launch site
Air Force Western Test Range (AFWTR)
Object type
Payload
Rocket body
Debris
Shape & HBR
Unknown shape, 0.1 m
Radar Cross Section
Small (<0.1 m²)

Expand to show TLE details & history
Last TLE update: 14 hours ago

TLE from 14 hours ago
0 OPS 0856 DEB
1 24676U 66077Q   26072.89622417  .00002564  00000-0  47990-1 0  9994
2 24676  88.0255  55.4704 2209933  28.2690 342.2160  9.05176399546850
Epoch: 2026-03-13T21:30Z
TLE epoch observation values (Epoch: 2026-03-13T21:30:33.768Z)
Latitude
-0.00012°
Longitude
-78.69549°
Altitude
1,366.045 km
Speed
7.873 km/s
True Right ascension
03h 41m 52s
True Declination
0° 00' 00"
Sunlit
Object was in daylight at epoch
Visualization orbit readout
Latitude
Unknown
Longitude
Unknown
Altitude
Unknown
Speed
Unknown
Apparent Right ascension
Unknown
Apparent Declination
Unknown
Sunlit
N/A
Visualization observer readout
Local Sidereal Time
16:10:34
Azimuth
Unknown
Elevation
Unknown
Doppler factor
Unknown
Orbital elements
Apogee altitude
5,493.701 km
Perigee altitude
1,196.222 km
Semi-major axis
9,723.099 km
Eccentricity
0.22099
Inclination
88.0255°
RAAN
55.4704°
Arg. of periapsis
28.269°
True anomaly
331.83299°
Mean anomaly
342.216°
Eccentric anomaly
337.33726°
Mean motion
2.26379 °/min
Orbital period
159.03 mins
BSTAR
0.04799
Loading maneuver chart data...
Computing Atmospheric mass density...
Loading historical data...
Loading historical data...
Loading historical data...
Loading historical data...
Loading historical data...
Loading historical data...
Loading historical data...

Documentation

Showing up to 5 results
|